Regional Weather Roundup
Issued by NWS Raleigh/Durham, NC

Home | Current Version | Previous Version | Text Only | Print | Product List | Glossary On
Versions: 1 2 3 4 5 6 7 8 9 10 11 12 13 14 15 16 17 18 19 20 21 22 23 24 25 26 27 28 29 30 31 32 33 34 35 36 37 38 39 40 41 42 43 44 45 46 47 48 49 50
537
ASUS42 KRAH 261010
RWRRAH
NORTH CAROLINA WEATHER ROUNDUP
NATIONAL WEATHER SERVICE RALEIGH NC
600 AM EDT TUE JUL 26 2016

NOTE: "FAIR" INDICATES FEW OR NO CLOUDS BELOW 12,000 FEET WITH NO
SIGNIFICANT WEATHER AND/OR OBSTRUCTIONS TO VISIBILITY.

NCZ001-053-055-056-065-067-261100-
WESTERN NORTH CAROLINA

CITY           SKY/WX    TMP DP  RH WIND       PRES   REMARKS
ASHEVILLE      CLEAR     71  65  81 CALM      30.11S
JEFFERSON      CLEAR     69  65  84 CALM      30.16R
MORGANTON      PTCLDY    69  69  99 N3        30.09R
HICKORY        PTCLDY    73  71  93 CALM      30.04R
RUTHERFORDTON    N/A     71  71 100 CALM      30.05S
MOUNT AIRY     CLOUDY    75  72  90 CALM      30.05R
BOONE          CLOUDY    67  66  96 W5        30.17R
$$

NCZ021-022-025-041-071-084-088-261100-
CENTRAL NORTH CAROLINA

CITY           SKY/WX    TMP DP  RH WIND       PRES   REMARKS
CHARLOTTE      PTCLDY    77  68  73 SW3       30.03R
GREENSBORO     CLOUDY    77  71  82 SW6       30.01S
WINSTON-SALEM  CLOUDY    79  71  76 SW3       30.03S
RALEIGH-DURHAM PTCLDY    77  72  84 W6        30.01R
FORT BRAGG     PTCLDY    78  72  83 SW7       30.01R
FAYETTEVILLE   PTCLDY    77  72  84 SW6       30.02R
BURLINGTON     PTCLDY    77  70  79 S5        30.01R
LAURINBURG     PTCLDY    76  73  91 SW5       30.03R
$$

NCZ011-015-027-028-043-044-047-080-103-261100-
NORTHEASTERN NORTH CAROLINA

CITY           SKY/WX    TMP DP  RH WIND       PRES   REMARKS
ROCKY MT-WILSO CLEAR     76  73  91 S7        29.99S
GREENVILLE     CLEAR     77  73  88 SW6       30.01S
ELIZABETH CITY MOCLDY    79  73  82 SW10      29.97R
MANTEO           N/A     79  76  90 W10G17    29.99R
CAPE HATTERAS  PTCLDY    80  75  84 W10       30.01S
$$

NCZ078-087-090-091-093-098-101-261100-
SOUTHEASTERN NORTH CAROLINA

CITY           SKY/WX    TMP DP  RH WIND       PRES   REMARKS
LUMBERTON      PTCLDY    75  73  93 SW5       30.02R
GOLDSBORO      PTCLDY    77  77 100 SW6       30.00R
KINSTON        PTCLDY    77  73  88 SW8       30.01S
KENANSVILLE    NOT AVBL
NEW BERN       CLEAR     76  73  91 SW6       30.02S
CHERRY POINT   PTCLDY    77  73  87 SW7       30.03S
BEAUFORT       PTCLDY    80  75  84 W10       30.02S
JACKSONVILLE   PTCLDY    76  72  87 SW8       30.02R
WILMINGTON     PTCLDY    77  73  87 SW6       30.03R
$$





USA.gov is the U.S. government's official web portal to all federal, state and local government web resources and services.